[[{"header":{"parameterUnit":"m.s-1","parameterCategory":1,"la1":30.2991,"la2":30.254,"lo1":-89.0895,"lo2":-89.0444,"dx":0.0017,"dy":0.0017,"nx":28,"ny":28,"refTime":"2022-11-28T15:00:00:Z","depth":0,"parameterNumber":2,"parameterNumberName":"U-component_of_WINDS"},"data":[0,0,0,0,0,0,0,0,0,0,0,0,0,0,0,0,0,0,0,0,0,0,0,0,0,0,0,0,0,0,0,0,0,0,0,0,0,0,0,0,0,0,0,0,0,0,0,0,0,0,0,0,0,0,0,0,0,0,-0.4555,-0.4556,0,-0.4611,-0.4612,-0.4613,-0.4649,-0.4649,-0.465,-0.465,-0.4708,-0.4709,-0.471,0,0,0,0,0,0,0,0,0,0,0,0,0,-0.4479,-0.448,-0.4555,-0.4556,-0.4556,-0.4611,-0.4612,-0.4613,-0.4649,-0.4649,-0.465,-0.465,-0.4707,-0.4709,-0.471,0,0,0,0,0,0,0,0,0,0,0,0,0,-0.4521,-0.4481,-0.4555,-0.4581,-0.4584,-0.4611,-0.4612,-0.4613,-0.4649,-0.4649,-0.465,-0.465,-0.4707,-0.4709,-0.4711,-0.4716,0,0,-0.4717,-0.4718,0,0,0,0,0,0,0,0,-0.4519,-0.4524,-0.4576,-0.4579,-0.4583,-0.4624,-0.4607,-0.4648,-0.4649,-0.4624,-0.465,-0.465,-0.4679,-0.4684,-0.4694,-0.4719,-0.4721,-0.4717,-0.4718,-0.4719,-0.472,0,0,0,0,0,0,0,-0.4516,-0.4522,-0.4577,-0.4577,-0.4581,-0.459,-0.4597,-0.4614,-0.4649,-0.4626,-0.4629,-0.4635,-0.4681,-0.4691,-0.4695,-0.4722,-0.4717,-0.4719,-0.472,-0.4721,-0.4755,-0.4754,0,0,0,0,0,0,-0.4509,-0.4519,-0.4575,-0.4579,-0.4551,-0.4591,-0.4598,-0.461,-0.4649,-0.4655,-0.4635,-0.4637,-0.4688,-0.4693,-0.4697,-0.4706,-0.4719,-0.4721,-0.4722,-0.4755,-0.4755,-0.4754,0,0,0,0,0,0,-0.4507,-0.4513,-0.4573,-0.455,-0.4558,-0.4592,-0.4605,-0.4611,-0.4621,-0.4656,-0.4662,-0.4639,-0.4688,-0.4694,-0.4711,-0.4709,-0.4722,-0.4724,-0.4755,-0.4755,-0.4754,-0.4724,0,0,0,0,0,0,-0.4505,-0.4513,-0.4515,-0.455,-0.4559,-0.4586,-0.4605,-0.4612,-0.4625,-0.4628,-0.4661,-0.4667,-0.4689,-0.4708,-0.4713,-0.4712,-0.4725,-0.4756,-0.4755,-0.4755,-0.4725,-0.4722,-0.472,0,0,0,0,0,-0.4502,-0.4504,-0.4515,-0.4522,-0.4563,-0.4586,-0.4591,-0.4616,-0.4624,-0.4627,-0.4649,-0.4666,-0.4708,-0.4709,-0.4715,-0.4715,-0.4756,-0.4755,-0.4755,-0.4726,-0.4723,-0.472,0,0,0,0,0,0,-0.4469,-0.4509,-0.4522,-0.4535,-0.4557,-0.4592,-0.4596,-0.4612,-0.4632,-0.4634,-0.4664,-0.4671,-0.4685,-0.4702,-0.4702,-0.4722,-0.4734,-0.4735,-0.471,-0.4708,-0.4705,-0.4701,-0.4727,0,0,0,0,0,-0.4463,-0.4478,-0.4513,-0.4521,-0.4531,-0.4562,-0.4573,-0.459,-0.4614,-0.4623,-0.4646,-0.4668,-0.4687,-0.4698,-0.4717,-0.4728,-0.4736,-0.473,-0.4728,-0.4725,-0.4725,-0.4732,-0.473,-0.4752,-0.4752,-0.4752,0,0,-0.4451,-0.4475,-0.4483,-0.4515,-0.4534,-0.4549,-0.4569,-0.4584,-0.4595,-0.4625,-0.4642,-0.466,-0.4687,-0.4701,-0.4708,-0.4715,-0.4721,-0.4725,-0.4722,-0.4724,-0.4731,-0.4729,-0.4727,-0.4752,-0.4752,-0.4752,0,0,-0.4438,-0.4457,-0.4467,-0.4485,-0.4513,-0.4533,-0.4535,-0.4568,-0.4581,-0.4598,-0.4621,-0.4635,-0.4666,-0.4684,-0.4697,-0.469,-0.4706,-0.4695,-0.4681,-0.4688,-0.4686,-0.4685,-0.4682,-0.468,-0.4695,-0.4695,-0.4695,0,-0.442,-0.4443,-0.4469,-0.4483,-0.4496,-0.4524,-0.4533,-0.455,-0.4582,-0.4591,-0.4599,-0.4638,-0.4658,-0.4676,-0.4674,-0.4684,-0.4688,-0.4691,-0.4684,-0.4683,-0.4682,-0.468,-0.4679,-0.4693,-0.4693,-0.4694,-0.4694,0,-0.4419,-0.4435,-0.4439,-0.4469,-0.4483,-0.4495,-0.4523,-0.4534,-0.455,-0.457,-0.4587,-0.4612,-0.4636,-0.4642,-0.4658,-0.4662,-0.4666,-0.4678,-0.4691,-0.4678,-0.4676,-0.4676,-0.4691,-0.4692,-0.4692,-0.4692,0,0,-0.4386,-0.4431,-0.4432,-0.4446,-0.4479,-0.4491,-0.4504,-0.4528,-0.4536,-0.4558,-0.4569,-0.4595,-0.4606,-0.4621,-0.4639,-0.4645,-0.4637,-0.4657,-0.4658,-0.4652,-0.4644,-0.4634,-0.4632,-0.4649,-0.4648,-0.4648,-0.4641,0,-0.4377,-0.4401,-0.4425,-0.4441,-0.4455,-0.4481,-0.4493,-0.4514,-0.4532,-0.4547,-0.4568,-0.4585,-0.4599,-0.4608,-0.4615,-0.4637,-0.4636,-0.4638,-0.4659,-0.466,-0.4651,-0.4632,-0.4622,-0.4614,-0.4641,-0.4641,-0.4641,0,-0.437,-0.439,-0.4406,-0.4437,-0.4444,-0.4454,-0.4477,-0.4491,-0.4516,-0.4529,-0.4546,-0.4565,-0.458,-0.4591,-0.4611,-0.4612,-0.4622,-0.4634,-0.4635,-0.4637,-0.4649,-0.4634,-0.4612,-0.461,-0.464,-0.464,-0.464,0,-0.4344,-0.4375,-0.4389,-0.44,-0.4437,-0.4443,-0.4458,-0.4483,-0.4496,-0.4516,-0.4524,-0.4546,-0.4558,-0.4575,-0.46,-0.4605,-0.4617,-0.4631,-0.4628,-0.4628,-0.463,-0.4629,-0.4609,-0.4637,-0.4637,-0.4637,-0.4637,0,-0.4331,-0.434,-0.4377,-0.4386,-0.4397,-0.4425,-0.4435,-0.4453,-0.4475,-0.4487,-0.4511,-0.4523,-0.4555,-0.457,-0.459,-0.4603,-0.4609,-0.462,-0.4625,-0.4617,-0.4616,-0.4624,-0.4625,-0.4636,-0.4636,-0.4636,-0.4636,0,-0.4304,-0.4329,-0.4346,-0.4379,-0.4388,-0.4394,-0.4423,-0.4432,-0.4452,-0.4467,-0.4472,-0.4503,-0.4522,-0.4549,-0.4576,-0.4589,-0.46,-0.4608,-0.4592,-0.4595,-0.4591,-0.4591,-0.4575,-0.4574,-0.4602,-0.4602,-0.4602,0,-0.4294,-0.4301,-0.4335,-0.4345,-0.436,-0.4376,-0.4388,-0.4416,-0.4428,-0.4457,-0.4462,-0.4483,-0.4501,-0.453,-0.4555,-0.4576,-0.4585,-0.4578,-0.4588,-0.4581,-0.4585,-0.4584,-0.4585,-0.4575,-0.4575,-0.4575,-0.4574,0,-0.4274,-0.4286,-0.4303,-0.4324,-0.4339,-0.4357,-0.4377,-0.4383,-0.4415,-0.4428,-0.4447,-0.4461,-0.4489,-0.4509,-0.4533,-0.455,-0.4567,-0.4571,-0.4572,-0.4564,-0.4554,-0.4559,-0.4585,-0.4571,-0.4571,-0.4572,-0.4572,-0.4572,-0.4255,-0.4263,-0.4287,-0.4306,-0.4323,-0.4341,-0.4351,-0.4371,-0.4388,-0.4413,-0.4428,-0.4447,-0.4471,-0.4505,-0.4521,-0.4536,-0.4543,-0.4544,-0.4544,-0.4544,-0.4541,-0.4551,-0.4541,-0.4541,-0.4541,-0.4541,-0.4541,0,-0.4236,-0.4253,-0.4269,-0.4295,-0.431,-0.4325,-0.4347,-0.4358,-0.4374,-0.4395,-0.4412,-0.4435,-0.4455,-0.4481,-0.4503,-0.451,-0.4518,-0.4514,-0.4514,-0.4517,-0.4534,-0.4531,-0.4507,-0.4507,-0.4507,-0.4507,-0.4507,-0.4507,-0.4227,-0.4241,-0.4256,-0.4278,-0.4296,-0.4314,-0.4325,-0.4342,-0.4359,-0.4382,-0.4399,-0.4416,-0.4439,-0.4462,-0.4481,-0.4489,-0.4495,-0.4489,-0.4499,-0.4513,-0.4516,-0.4519,-0.4517,-0.449,-0.449,-0.4481,-0.4481,-0.4481]},{"header":{"parameterUnit":"m.s-1","parameterCategory":1,"la1":30.2991,"la2":30.254,"lo1":-89.0895,"lo2":-89.0444,"dx":0.0017,"dy":0.0017,"nx":28,"ny":28,"refTime":"2022-11-28T15:00:00:Z","depth":0,"parameterNumber":3,"parameterNumberName":"V-component_of_WINDS"},"data":[0,0,0,0,0,0,0,0,0,0,0,0,0,0,0,0,0,0,0,0,0,0,0,0,0,0,0,0,0,0,0,0,0,0,0,0,0,0,0,0,0,0,0,0,0,0,0,0,0,0,0,0,0,0,0,0,0,0,5.7179,5.7181,0,5.7337,5.7338,5.734,5.7343,5.7341,5.7339,5.7338,5.7494,5.75,5.7506,0,0,0,0,0,0,0,0,0,0,0,0,0,5.6877,5.6883,5.7179,5.7181,5.7183,5.7336,5.7339,5.7341,5.7344,5.7341,5.7339,5.7337,5.7492,5.7499,5.7507,0,0,0,0,0,0,0,0,0,0,0,0,0,5.7019,5.6885,5.7179,5.7203,5.7207,5.7336,5.7339,5.7341,5.7344,5.7341,5.7338,5.7336,5.749,5.7499,5.7508,5.7622,0,0,5.7535,5.7539,0,0,0,0,0,0,0,0,5.7011,5.703,5.7197,5.7201,5.7206,5.7317,5.729,5.7435,5.7345,5.7292,5.7337,5.7334,5.7438,5.7451,5.7487,5.7629,5.7636,5.7536,5.7541,5.7545,5.7548,0,0,0,0,0,0,0,5.7001,5.7023,5.7241,5.72,5.7205,5.7205,5.7222,5.7317,5.7379,5.7296,5.7297,5.7316,5.7439,5.7478,5.749,5.7638,5.7536,5.7544,5.7549,5.7553,5.7886,5.7889,0,0,0,0,0,0,5.6987,5.7015,5.7236,5.7246,5.7099,5.7213,5.7232,5.7284,5.7378,5.739,5.7318,5.7315,5.7464,5.748,5.7496,5.7639,5.7545,5.7554,5.7559,5.7882,5.7886,5.789,0,0,0,0,0,0,5.698,5.7007,5.723,5.7131,5.7159,5.7221,5.728,5.7289,5.7328,5.7395,5.7405,5.7346,5.7462,5.7483,5.7592,5.7644,5.7558,5.7566,5.7878,5.7884,5.7888,5.7923,0,0,0,0,0,0,5.6972,5.7004,5.7049,5.7132,5.7165,5.7324,5.7284,5.7294,5.7344,5.7342,5.7424,5.7435,5.7462,5.7578,5.7601,5.7655,5.7573,5.7874,5.7881,5.7887,5.7918,5.7929,5.7938,0,0,0,0,0,5.6961,5.705,5.7051,5.7078,5.7222,5.7327,5.7345,5.7376,5.7348,5.7393,5.7437,5.7432,5.7634,5.7589,5.7614,5.7672,5.7871,5.7879,5.7886,5.7913,5.7927,5.7938,0,0,0,0,0,0,5.6969,5.7062,5.7063,5.7182,5.7247,5.7327,5.7385,5.7389,5.7461,5.7456,5.7489,5.7508,5.7617,5.7654,5.7603,5.7789,5.7749,5.7762,5.7761,5.7774,5.7784,5.7774,5.758,0,0,0,0,0,5.6985,5.7064,5.714,5.7238,5.7271,5.7322,5.7369,5.7387,5.7455,5.7482,5.7533,5.7597,5.7676,5.7727,5.7802,5.7922,5.7942,5.7975,5.7985,5.7993,5.8005,5.8075,5.8091,5.7916,5.7916,5.7916,0,0,5.7019,5.7079,5.7126,5.7241,5.7293,5.7375,5.7345,5.7431,5.7492,5.7494,5.7602,5.7641,5.7715,5.7831,5.7885,5.7867,5.8058,5.8003,5.8009,5.8017,5.8084,5.8101,5.8116,5.7921,5.792,5.7919,0,0,5.7121,5.7174,5.7263,5.7317,5.7398,5.7432,5.7453,5.7534,5.7561,5.767,5.7675,5.7746,5.7879,5.7934,5.7978,5.8105,5.8104,5.8128,5.8183,5.8251,5.8264,5.8277,5.8325,5.8341,5.8139,5.8139,5.8139,0,5.7152,5.7276,5.7308,5.7396,5.7447,5.7456,5.7547,5.7596,5.7697,5.7732,5.771,5.788,5.793,5.8061,5.8092,5.8127,5.8154,5.812,5.826,5.8273,5.8285,5.8331,5.8349,5.8141,5.8141,5.8141,5.8141,0,5.7311,5.7397,5.7459,5.756,5.7617,5.7706,5.7751,5.7805,5.7819,5.7856,5.7967,5.8028,5.8118,5.8149,5.8161,5.8282,5.8269,5.8253,5.8214,5.8304,5.8348,5.8365,5.8145,5.8144,5.8143,5.8143,0,0,5.7423,5.7543,5.7565,5.7612,5.7703,5.7769,5.7858,5.7949,5.7996,5.8065,5.8142,5.8256,5.8243,5.8294,5.8313,5.8372,5.8472,5.8349,5.8351,5.8372,5.8612,5.8625,5.8645,5.8471,5.8475,5.8477,5.8607,0,5.7538,5.77,5.7733,5.7873,5.7954,5.7964,5.8042,5.8106,5.8143,5.8216,5.8255,5.8338,5.8313,5.8344,5.8403,5.8447,5.8521,5.8438,5.8544,5.8547,5.8528,5.8668,5.8681,5.88,5.8624,5.8626,5.8629,0,5.7694,5.7771,5.792,5.8003,5.8038,5.8108,5.8195,5.8264,5.8337,5.836,5.8419,5.8432,5.8525,5.8481,5.8611,5.8554,5.8599,5.8627,5.8633,5.8646,5.8595,5.8687,5.8839,5.8858,5.8655,5.8653,5.8651,0,5.7765,5.7905,5.8013,5.8052,5.8151,5.8201,5.8244,5.8314,5.8367,5.8442,5.8478,5.8561,5.8608,5.8672,5.8708,5.8672,5.8837,5.8794,5.8859,5.8859,5.8895,5.8893,5.9059,5.892,5.8919,5.8919,5.8919,0,5.7892,5.7983,5.8047,5.8114,5.8217,5.8253,5.8354,5.8396,5.8459,5.8534,5.8546,5.8616,5.8658,5.8734,5.8762,5.8867,5.8887,5.8909,5.8915,5.8909,5.8907,5.8941,5.8935,5.8924,5.8923,5.8922,5.8921,0,5.7989,5.8035,5.8155,5.824,5.8263,5.8336,5.8408,5.8473,5.8511,5.8606,5.863,5.8689,5.8779,5.8821,5.8931,5.895,5.9071,5.907,5.9048,5.9051,5.9115,5.9109,5.9311,5.9341,5.9178,5.918,5.9181,0,5.8068,5.8139,5.8233,5.8286,5.8331,5.8415,5.847,5.8508,5.8565,5.8656,5.8711,5.8802,5.8878,5.9021,5.9073,5.9158,5.9162,5.9227,5.9175,5.9168,5.9167,5.9163,5.9172,5.9237,5.9238,5.924,5.9241,0,5.8204,5.8225,5.8305,5.8395,5.8461,5.8533,5.8603,5.8645,5.8694,5.8757,5.8852,5.891,5.9026,5.9117,5.9206,5.925,5.9255,5.9256,5.9277,5.9273,5.9258,5.927,5.9076,5.9252,5.9251,5.925,5.9249,5.9249,5.8297,5.8362,5.844,5.853,5.8587,5.8654,5.8721,5.8768,5.8848,5.8946,5.8963,5.9064,5.9137,5.9258,5.9305,5.9384,5.9369,5.9397,5.9405,5.9412,5.9418,5.9243,5.94,5.94,5.9399,5.9399,5.9399,0,5.8437,5.8488,5.857,5.867,5.8742,5.8741,5.8819,5.8879,5.8968,5.9037,5.9112,5.9222,5.9311,5.9371,5.9461,5.9513,5.9518,5.9536,5.9534,5.9544,5.9425,5.94,5.9531,5.9531,5.9531,5.9531,5.9531,5.9531,5.8518,5.863,5.866,5.8801,5.8851,5.8952,5.8997,5.9058,5.9114,5.9237,5.9312,5.9351,5.9417,5.9513,5.9595,5.961,5.9644,5.9663,5.9678,5.9566,5.9552,5.9539,5.9516,5.967,5.967,5.9792,5.9793,5.9794]}]]